Home   Weather   Enschede   Past weeks
Flag for Netherlands

Past Weather in Enschede, Netherlands — Yesterday and Last 2 Weeks

Now
46 °F

Overcast.


Feels Like: 39 °F
Forecast: 52 / 43 °F
Wind: 17 mph from Southwest

Location: Deelen

Current Time: Feb 21, 2020 at 7:51:16 pm

Latest Report: Feb 21, 2020 at 6:55 pm


Visibility: N/A

Pressure: 30.18 "Hg

Humidity: 76%

Dew Point: 39 °F

Location of EnschedeLocation

Past Weather in Enschede — Graph

°F

Enschede Temperature Yesterday

Maximum temperature yesterday: 50 °F (at 1:25 pm)
Minimum temperature yesterday: 39 °F (at 11:25 pm)
Average temperature yesterday: 46 °F

High & Low Weather Summary for the Past Weeks

 TemperatureHumidityPressure
High63 °F (Feb 16, 5:25 pm)100% (Feb 7, 3:55 am)30.42 "Hg (Feb 7, 3:55 am)
Low30 °F (Feb 7, 6:55 am)53% (Feb 11, 12:55 pm)29.09 "Hg (Feb 9, 10:25 pm)
Average45 °F80%29.85 "Hg
* Reported Feb 6 6:25 pm — Feb 21 6:55 pm, Enschede. Weather by CustomWeather, © 2020

Note: Actual official high and low records may vary slightly from our data, if they occured in-between our weather recording intervals... More about our weather records

Enschede Weather History for the Previous 24 Hours

Scroll right to see more
 ConditionsComfort  
Time TempWeatherWind HumidityBarometerVisibility
6:55 pm
Fri, Feb 21
46 °FOvercast.17 mph76%30.18 "HgN/A
6:25 pm46 °FPartly cloudy.17 mph76%30.18 "HgN/A
5:55 pm46 °FMostly cloudy.15 mph76%30.18 "HgN/A
5:25 pm46 °FPartly sunny.17 mph76%30.18 "HgN/A
4:55 pm46 °FCloudy.17 mph76%30.18 "HgN/A
4:25 pm46 °FMostly cloudy.17 mph76%30.21 "HgN/A
3:55 pm46 °FMostly cloudy.17 mph76%30.21 "HgN/A
3:25 pm46 °FCloudy.16 mph71%30.21 "HgN/A
2:55 pm46 °FMostly cloudy.20 mph71%30.21 "HgN/A
2:25 pm46 °FMore clouds than sun.17 mph71%30.21 "HgN/A
1:55 pm46 °FMostly cloudy.16 mph76%30.21 "HgN/A
12:55 pm46 °FBroken clouds.16 mph76%30.24 "HgN/A
12:25 pm46 °FBroken clouds.18 mph76%30.24 "HgN/A
11:55 am46 °FMore clouds than sun.18 mph76%30.24 "HgN/A
11:25 am45 °FOvercast.16 mph81%30.24 "HgN/A
10:55 am45 °FScattered clouds.16 mph81%30.24 "HgN/A
10:25 am43 °FPassing clouds.13 mph81%30.21 "HgN/A
9:55 am41 °FPartly sunny.15 mph87%30.21 "HgN/A
9:25 am41 °FPartly sunny.15 mph87%30.21 "HgN/A
8:55 am39 °FMostly cloudy.13 mph87%30.21 "HgN/A
8:25 am37 °FPartly sunny.10 mph93%30.18 "HgN/A
7:55 am37 °FPartly sunny.14 mph93%30.18 "HgN/A
7:25 am37 °FPassing clouds.13 mph87%30.18 "HgN/A
6:55 am37 °FPassing clouds.9 mph87%30.15 "HgN/A
6:25 am37 °FChilly.10 mph87%30.15 "HgN/A
5:55 am37 °FChilly.10 mph87%30.15 "HgN/A
5:25 am37 °FChilly.10 mph87%30.12 "HgN/A
4:55 am39 °FChilly.10 mph81%30.12 "HgN/A
4:25 am37 °FChilly.9 mph87%30.12 "HgN/A
3:55 am37 °FPassing clouds.12 mph81%30.09 "HgN/A
3:25 am39 °FPassing clouds.12 mph75%30.09 "HgN/A
2:55 am39 °FChilly.9 mph75%30.07 "HgN/A
2:25 am39 °FPartly cloudy.10 mph75%30.07 "HgN/A
1:55 am41 °FPassing clouds.13 mph76%30.04 "HgN/A
1:25 am41 °FPassing clouds.10 mph76%30.04 "HgN/A
12:55 am41 °FPassing clouds.12 mph76%30.01 "HgN/A
12:25 am41 °FPassing clouds.13 mph76%29.98 "HgN/A
11:55 pm
Thu, Feb 20
39 °FChilly.12 mph87%29.98 "HgN/A
11:25 pm39 °FChilly.10 mph87%29.95 "HgN/A
10:55 pm41 °FMostly cloudy.12 mph81%29.92 "HgN/A
10:36 pm41 °FPartly cloudy.16 mph81%29.92 "HgN/A
9:55 pm41 °FPassing clouds.14 mph93%29.86 "HgN/A
9:25 pm43 °FPartly cloudy.10 mph87%29.83 "HgN/A
8:55 pm43 °FPartly cloudy.14 mph87%29.80 "HgN/A
8:25 pm43 °FLight rain. Partly cloudy.13 mph93%29.77 "HgN/A
7:55 pm45 °FLight rain. Partly cloudy.23 mph87%29.74 "Hg5 mi
7:25 pm46 °FSprinkles. Partly cloudy.18 mph93%29.71 "HgN/A
Weather by CustomWeather, © 2020

See weather overview

Advertising